Weather History for KRWL - January, 2013

Change the Weather History Date:

Tuesday, January 15, 2013

  Actual Average Record
Temperature  
Mean Temperature 7 °F 22 °F  
Max Temperature 15 °F 31 °F 50 °F (2000)
Min Temperature -2 °F 12 °F -19 °F (1992)
Degree Days  
Heating Degree Days 58 43  
Month to date heating degree days 806 645  
Since 1 July heating degree days 3757 4099  
Cooling Degree Days 0 0  
Month to date cooling degree days 0 0  
Year to date cooling degree days 0 0  
Moisture  
Dew Point -1 °F    
Average Humidity 69    
Maximum Humidity 76    
Minimum Humidity 61    
Precipitation  
Precipitation T in 0.01 in 0.38 in (1978)
Month to date precipitation T 0.19  
Year to date precipitation T 0.19  
Sea Level Pressure  
Sea Level Pressure 30.28 in    
Wind  
Wind Speed 16 mph (WSW)    
Max Wind Speed 31 mph    
Max Gust Speed 39 mph    
Visibility 8 miles    
Events Snow    
T = Trace of Precipitation, MM = Missing Value Source: NWS Daily Summary

Daily Weather History Graph

Daily Weather History Graph

Search for Another Location

Airport or City:

Trip Planner

Search our weather history database for the weather conditions in past years. The results will help you decide how hot, cold, wet, or windy it might be!

Date:

Astronomy

Jan. 15, 2013 Rise Set
Actual Time 7:33 AM MST 5:03 PM MST
Civil Twilight 7:02 AM MST 5:34 PM MST
Nautical Twilight 6:28 AM MST 6:08 PM MST
Astronomical Twilight 5:55 AM MST 6:41 PM MST
Moon 9:36 AM MST (1/15) 10:01 PM MST (1/15)
Length of Visible Light 10h 31m
Length of Day
9h 29m
Waxing Crescent, 20% of the Moon is Illuminated
Jan 15
Waxing Crescent
Jan 18
First Quarter
Jan 26
Full
Feb 3
Last Quarter
Feb 10
New

Hourly Weather History & Observations

Time (MST) Temp. Windchill Dew Point Humidity Pressure Visibility Wind Dir Wind Speed Gust Speed Precip Events Conditions
12:53 AM -2.0 °F -15.4 °F -9.9 °F 69% 30.39 in 10.0 mi North 6.9 mph - N/A   Mostly Cloudy
1:04 AM -0.4 °F -17.6 °F -9.4 °F 66% 30.02 in 10.0 mi NNW 11.5 mph 19.6 mph N/A   Mostly Cloudy
1:39 AM -0.4 °F -17.6 °F -9.4 °F 66% 30.05 in 10.0 mi NW 11.5 mph - N/A   Overcast
1:53 AM -0.0 °F -18.0 °F -9.0 °F 66% 30.40 in 8.0 mi West 12.7 mph 24.2 mph 0.00 in   Overcast
2:53 AM -0.0 °F -20.7 °F -9.0 °F 66% 30.36 in 10.0 mi West 17.3 mph 26.5 mph 0.00 in   Mostly Cloudy
3:53 AM -0.0 °F -20.1 °F -8.0 °F 69% 29.93 in 10.0 mi WSW 16.1 mph 26.5 mph 0.00 in   Overcast
4:53 AM 1.0 °F -20.4 °F -7.1 °F 69% 29.94 in 10.0 mi WSW 19.6 mph 32.2 mph 0.00 in   Overcast
5:53 AM 1.9 °F -18.7 °F -6.0 °F 69% 30.43 in 10.0 mi West 18.4 mph 28.8 mph 0.00 in   Overcast
6:53 AM 3.0 °F -14.8 °F -5.1 °F 69% 29.97 in 5.0 mi West 13.8 mph 29.9 mph 0.00 in Snow Light Snow
7:53 AM 3.0 °F -14.8 °F -5.1 °F 69% 29.98 in 10.0 mi West 13.8 mph 18.4 mph 0.00 in   Overcast
8:53 AM 5.0 °F -16.2 °F -2.9 °F 70% 30.45 in 8.0 mi WSW 21.9 mph 33.4 mph 0.00 in   Overcast
9:25 AM 6.8 °F -16.6 °F -2.2 °F 67% 30.12 in 2.5 mi WSW 29.9 mph 36.8 mph 0.00 in Snow Light Snow
9:44 AM 6.8 °F -15.5 °F -0.4 °F 72% 30.12 in 3.0 mi WSW 26.5 mph 33.4 mph 0.00 in Snow Light Snow
9:53 AM 7.0 °F -14.5 °F -0.0 °F 73% 30.44 in 3.0 mi WSW 24.2 mph 34.5 mph 0.00 in Snow Light Snow
10:03 AM 6.8 °F -15.1 °F -0.4 °F 72% 30.13 in 2.5 mi WSW 25.3 mph 34.5 mph 0.00 in Snow Light Snow
10:10 AM 6.8 °F -14.3 °F -0.4 °F 72% 30.13 in 4.0 mi WSW 23.0 mph 34.5 mph 0.00 in Snow Light Snow
10:33 AM 6.8 °F -13.4 °F -0.4 °F 72% 30.13 in 2.5 mi WSW 20.7 mph 33.4 mph 0.00 in Snow Light Snow
10:53 AM 7.0 °F -13.1 °F -0.9 °F 70% 30.44 in 3.0 mi WSW 20.7 mph 33.4 mph 0.00 in Snow Light Snow
11:10 AM 8.6 °F -12.7 °F -0.4 °F 67% 30.11 in 2.0 mi WSW 25.3 mph 35.7 mph 0.00 in Snow Light Snow
11:20 AM 8.6 °F -13.1 °F -0.4 °F 67% 30.11 in 4.0 mi WSW 26.5 mph 36.8 mph 0.00 in Snow Light Snow
11:53 AM 9.0 °F -12.2 °F -0.0 °F 67% 30.42 in 5.0 mi WSW 25.3 mph 36.8 mph 0.00 in   Overcast
12:53 PM 10.9 °F -4.7 °F 1.9 °F 67% 30.40 in 10.0 mi West 13.8 mph 25.3 mph 0.00 in   Overcast
1:53 PM 12.0 °F 5.9 °F 1.9 °F 64% 30.44 in 10.0 mi Variable 3.5 mph - N/A   Overcast
2:08 PM 12.2 °F 2.9 °F 3.2 °F 67% 30.15 in 10.0 mi Variable 5.8 mph - N/A   Overcast
2:17 PM 12.2 °F -1.0 °F 3.2 °F 67% 30.15 in 10.0 mi WSW 10.4 mph - N/A   Overcast
2:53 PM 12.9 °F -0.9 °F 3.0 °F 65% 30.43 in 10.0 mi SW 11.5 mph 27.6 mph N/A   Overcast
3:53 PM 12.9 °F 0.7 °F 1.9 °F 62% 30.45 in 10.0 mi West 9.2 mph 20.7 mph N/A   Overcast
4:53 PM 10.9 °F -2.6 °F 1.9 °F 67% 30.47 in 10.0 mi West 10.4 mph - N/A   Overcast
5:53 PM 10.0 °F 1.8 °F 1.9 °F 70% 30.49 in 10.0 mi Variable 4.6 mph - N/A   Clear
6:43 PM 10.4 °F -6.6 °F 3.2 °F 73% 30.21 in 10.0 mi WSW 16.1 mph 25.3 mph N/A   Mostly Cloudy
6:53 PM 10.0 °F -6.5 °F 3.0 °F 73% 30.48 in 10.0 mi WSW 15.0 mph 23.0 mph N/A   Overcast
7:53 PM 12.0 °F -5.1 °F 3.9 °F 70% 30.49 in 10.0 mi WSW 17.3 mph 24.2 mph N/A   Mostly Cloudy
8:00 PM 12.2 °F -5.3 °F 3.2 °F 67% 30.22 in 10.0 mi WSW 18.4 mph 28.8 mph N/A   Mostly Cloudy
8:53 PM 12.9 °F -4.9 °F 5.0 °F 71% 30.49 in 10.0 mi WSW 19.6 mph 27.6 mph N/A   Overcast
9:53 PM 12.9 °F -4.4 °F 5.0 °F 71% 30.48 in 10.0 mi WSW 18.4 mph 31.1 mph N/A   Overcast
10:53 PM 15.1 °F -5.0 °F 6.1 °F 68% 30.47 in 10.0 mi WSW 28.8 mph 36.8 mph N/A   Overcast
11:53 PM 15.1 °F -2.0 °F 6.1 °F 68% 30.45 in 10.0 mi WSW 19.6 mph 31.1 mph N/A   Overcast